Wind_Speed
2 2 2 2 3 3 4 4 5 6 7 7 8 9 10 11 12 13 14 16 17 18 19 20 21 22 22 23 24 24 25 25 25 26 26 25 24 24 23 22 22 21 20 19
4 4 4 4 4 5 5 6 6 8 8 9 10 11 12 13 14 15 17 18 19 20 21 22 23 24 25 26 27 27 27 28 28 28 28 28 27 26 25 24 23 23 22 21
5 5 6 5 6 7 7 8 9 9 10 11 12 14 15 16 17 18 19 20 21 22 23 24 25 26 28 29 29 30 30 30 30 30 30 30 29 29 28 27 25 24 24 23
7 7 7 8 8 9 10 11 11 12 13 14 15 17 18 19 20 21 22 23 24 25 26 27 29 29 30 31 31 32 33 33 33 33 33 32 31 31 30 29 28 27 26 25
9 9 10 10 11 12 12 13 14 15 16 17 18 20 21 22 24 25 26 27 28 29 30 31 32 32 33 34 34 34 35 35 35 35 35 34 34 33 33 32 30 29 28 27
11 12 13 13 14 15 16 16 17 18 19 19 21 23 24 25 27 28 30 31 32 32 33 34 35 35 36 36 37 37 37 37 37 37 37 37 37 36 36 35 33 32 31 30
15 16 16 16 17 17 18 19 19 20 21 22 23 25 27 28 29 31 32 33 35 36 36 37 38 38 39 39 40 40 40 40 39 39 39 39 39 39 39 38 36 35 34 33
18 19 19 20 20 21 21 22 22 23 24 25 26 28 29 31 32 33 34 36 37 38 38 39 40 41 41 42 43 43 43 43 42 42 41 40 40 41 40 40 39 38 37 36
21 21 22 22 23 24 24 25 25 26 27 28 29 30 32 33 35 36 36 38 39 40 40 41 42 43 44 45 46 46 46 45 44 44 43 42 41 41 40 40 40 39 39 38
24 24 24 25 26 26 27 28 28 29 29 30 32 33 34 35 36 37 39 40 41 42 43 43 44 46 47 47 48 48 47 47 46 45 44 43 42 42 41 40 41 41 41 40
27 27 27 28 29 29 30 30 31 31 32 33 34 35 36 37 38 40 41 42 43 44 45 46 47 48 49 49 49 49 48 48 47 47 46 45 43 42 41 41 41 42 41 41
30 30 30 30 31 32 32 33 33 34 35 36 37 38 39 40 41 42 43 45 46 47 48 49 49 50 50 49 49 49 48 48 47 46 45 45 44 43 42 42 42 42 42 41
33 32 33 33 34 34 35 36 36 36 37 38 39 40 41 43 44 45 46 47 48 49 50 50 51 50 50 50 49 48 48 47 45 45 45 45 44 44 43 43 43 43 43 43
35 35 35 35 36 36 37 37 38 39 40 41 42 43 44 45 46 47 48 50 50 51 51 51 51 51 50 50 49 48 47 46 46 46 45 45 44 43 42 42 42 43 43 44
36 36 36 37 37 38 39 40 41 41 42 43 44 45 46 47 48 49 50 51 51 51 51 51 51 51 51 49 48 47 47 46 46 46 44 43 42 42 41 41 41 41 42 43
37 37 37 37 38 39 40 41 42 42 44 45 46 46 48 49 49 50 51 51 51 51 51 51 51 51 50 49 48 47 47 46 46 45 44 43 42 41 41 41 41 41 41 42
37 37 38 38 39 39 40 41 43 44 45 46 47 48 49 50 50 51 51 52 52 52 52 52 52 51 50 49 49 48 48 46 45 44 43 42 42 42 42 42 42 42 41 42
38 39 40 40 40 41 41 42 44 45 46 47 49 50 50 51 51 52 52 52 52 52 53 53 53 52 50 49 49 49 48 47 46 45 44 43 42 42 42 42 42 42 41 41
39 40 41 41 42 42 43 44 45 46 48 49 50 51 51 52 52 52 53 53 53 53 52 52 52 51 50 50 50 50 49 48 47 46 44 43 43 42 42 42 42 42 41 41
41 42 42 43 43 44 45 46 47 48 50 51 52 52 52 53 53 53 53 53 53 53 52 53 52 52 51 51 51 51 49 48 47 45 44 43 42 41 41 40 41 41 42 42
44 45 45 45 45 46 47 48 49 50 52 53 53 53 53 53 53 53 53 53 53 53 53 53 53 52 52 52 51 50 48 46 44 43 42 41 41 40 40 39 40 41 42 42
46 47 47 48 48 49 50 51 52 53 53 53 54 54 54 53 53 54 54 54 54 53 53 53 52 52 52 51 49 47 45 44 43 42 41 41 41 40 40 39 39 39 41 42
49 49 49 50 50 51 52 53 54 54 54 54 54 53 53 54 54 55 55 54 54 53 53 52 52 52 50 49 47 45 44 43 43 42 41 41 41 40 39 39 38 38 39 41
52 51 51 51 52 53 53 54 54 54 54 54 54 54 54 55 55 55 55 54 54 53 53 52 51 50 48 47 45 44 43 42 42 41 41 40 39 39 38 37 37 36 37 38
54 53 53 54 54 54 54 54 54 53 53 54 54 54 55 56 56 56 54 53 53 53 52 51 49 48 46 45 44 43 42 41 41 40 39 38 37 36 35 35 35 34 35 36
55 55 55 55 54 54 54 54 54 54 54 54 55 55 55 56 55 54 53 52 51 51 50 48 47 46 44 43 43 42 41 41 40 38 37 36 35 34 33 32 31 31 32 33
55 55 55 54 54 54 55 55 55 55 56 56 56 55 55 54 54 53 52 50 49 49 47 45 44 42 41 41 41 40 39 38 37 36 35 34 33 32 30 29 28 28 29 30
Wind_Direction
215 230 244 250 255 260 266 272 280 286 287 291 290 293 296 300 303 304 305 307 308 309 309 308 307 305 304 303 302 301 300 299 299 298 298 298 298 298 298 297 297 297 298 300
254 261 265 264 262 264 271 275 278 282 286 289 290 293 295 298 300 301 302 304 305 306 306 306 305 305 304 303 301 300 299 298 297 297 296 295 295 294 292 292 292 292 292 292
261 268 271 271 270 272 277 280 284 288 291 293 294 295 296 298 300 300 301 301 302 303 304 304 303 303 303 302 300 298 297 296 295 294 294 293 292 291 290 288 287 286 286 286
268 272 273 277 279 280 282 286 287 289 292 294 296 296 297 298 299 300 300 301 302 303 304 304 304 303 303 302 300 298 296 295 294 293 291 289 288 287 287 286 284 283 281 280
270 274 279 281 283 285 287 287 288 290 292 294 296 296 297 298 299 299 300 301 302 302 303 303 303 303 303 302 301 299 298 296 294 293 291 288 286 283 282 282 280 279 277 276
271 275 279 282 283 286 288 288 290 292 294 296 297 297 298 299 300 301 302 302 302 302 302 302 302 303 303 302 301 300 298 297 294 292 290 287 284 282 279 277 276 274 273 271
274 276 280 282 283 285 287 290 291 293 295 296 297 299 300 301 301 302 302 303 303 303 302 301 301 302 302 302 302 301 300 297 294 291 289 286 283 280 278 275 272 270 269 267
275 277 280 282 284 285 287 290 291 293 294 296 297 298 300 301 301 302 303 303 304 304 303 302 301 302 302 302 302 302 300 298 295 292 289 286 282 280 278 275 271 268 266 264
275 278 280 282 284 286 288 290 292 293 294 296 297 299 300 301 301 302 303 304 304 304 304 302 302 302 302 303 302 302 300 298 295 292 289 286 283 279 277 275 271 268 264 262
276 278 280 282 284 286 287 289 292 293 294 296 298 300 301 302 303 304 304 304 304 304 304 302 302 302 302 302 302 301 300 297 295 292 288 285 282 279 277 275 272 268 265 261
276 278 280 282 285 287 288 290 291 292 294 296 298 299 300 302 302 303 304 304 304 304 303 303 303 302 302 302 302 301 300 297 294 291 288 285 282 279 275 273 271 268 265 262
276 279 281 283 285 286 288 289 291 292 294 296 297 299 300 301 302 303 304 304 303 303 303 303 303 303 303 302 302 301 300 298 295 291 287 284 281 277 274 271 269 266 263 260
278 280 282 284 285 286 287 289 290 291 293 295 297 298 299 301 302 303 303 303 303 304 303 303 304 303 303 303 302 301 300 298 296 292 289 286 283 279 273 269 267 264 261 258
279 282 283 284 285 286 286 288 289 291 293 295 296 298 299 301 302 302 303 303 303 303 303 303 304 304 303 303 302 301 300 298 296 294 291 288 285 281 276 271 267 264 261 258
281 283 284 285 285 285 286 288 289 291 293 295 296 298 299 301 302 302 303 303 303 303 303 304 304 303 303 303 302 301 300 298 296 295 292 289 285 281 277 272 269 266 262 258
282 284 285 286 286 287 288 289 290 292 293 295 297 298 300 301 302 303 304 304 303 303 303 303 303 303 302 302 301 300 299 298 297 295 292 288 284 281 277 273 269 266 262 258
282 284 285 287 288 289 290 290 291 293 295 296 298 299 300 302 302 303 303 304 303 303 302 303 303 303 302 301 300 300 300 299 297 295 292 287 284 280 276 273 269 266 262 259
282 284 286 288 289 290 291 292 293 294 295 297 298 300 301 302 302 303 303 303 303 302 301 302 303 302 300 299 300 300 300 298 296 295 292 288 285 281 277 273 269 265 261 258
284 286 288 289 290 292 293 294 295 296 297 298 299 300 301 301 302 302 302 302 302 301 301 301 302 301 300 299 300 300 300 298 295 293 291 289 286 282 278 273 269 264 261 258
285 287 288 290 291 293 294 295 296 297 298 299 300 300 301 301 301 301 302 302 302 301 301 301 301 301 299 299 300 300 298 297 295 293 291 289 287 283 279 274 269 264 260 257
286 287 289 290 291 293 294 295 296 297 298 299 299 300 300 300 300 301 301 302 301 300 300 300 300 300 299 299 299 299 298 296 294 292 291 290 288 283 279 275 270 265 259 256
286 288 288 290 292 293 295 295 295 296 297 298 299 299 299 299 299 300 301 301 300 300 300 300 300 299 299 299 299 298 296 295 293 292 290 289 287 283 280 276 272 266 260 256
286 287 288 289 291 293 294 294 295 295 296 297 298 298 298 299 300 300 301 301 300 299 299 299 300 299 298 297 297 296 296 294 293 292 290 290 289 285 281 276 272 267 260 256
286 287 287 288 290 291 293 293 294 295 295 296 297 297 297 298 299 300 301 300 299 298 298 299 299 298 297 296 296 296 295 295 293 292 291 290 289 287 283 277 271 266 260 256
284 285 286 288 289 290 292 293 293 293 294 295 296 296 297 298 299 300 301 300 299 299 299 299 298 297 296 295 295 295 295 295 294 292 291 289 288 287 284 278 271 264 260 254
283 285 286 287 288 289 290 291 291 292 293 294 294 295 296 297 298 300 300 300 300 299 299 299 298 297 296 295 295 294 294 294 293 292 290 289 287 286 283 277 270 264 259 253
283 284 285 286 287 288 289 289 290 291 292 293 293 294 295 295 297 298 299 299 299 299 299 299 298 297 296 296 296 295 294 294 293 291 290 288 286 283 280 275 269 263 257 250
Height
5838 5838 5838 5838 5838 5838 5838 5838 5838 5837 5836 5836 5835 5834 5833 5832 5831 5830 5828 5827 5825 5823 5822 5820 5817 5815 5813 5811 5808 5806 5804 5801 5799 5797 5795 5792 5790 5788 5786 5784 5782 5780 5778 5776
5837 5836 5836 5836 5836 5836 5835 5835 5835 5834 5834 5833 5832 5831 5829 5828 5827 5825 5824 5822 5820 5818 5816 5814 5812 5809 5807 5804 5801 5799 5797 5794 5792 5790 5788 5786 5783 5781 5780 5778 5776 5774 5773 5771
5835 5834 5834 5834 5834 5833 5833 5832 5832 5831 5831 5829 5828 5826 5825 5824 5822 5820 5819 5817 5815 5813 5810 5808 5805 5802 5799 5796 5793 5791 5788 5786 5784 5782 5780 5778 5776 5774 5772 5771 5769 5768 5767 5765
5832 5832 5832 5834 5831 5830 5829 5829 5828 5827 5826 5825 5823 5822 5820 5818 5816 5815 5813 5810 5808 5806 5803 5800 5797 5794 5790 5787 5784 5781 5779 5776 5774 5772 5770 5768 5767 5765 5763 5762 5761 5760 5759 5758
5829 5828 5828 5829 5827 5826 5825 5825 5823 5822 5821 5820 5818 5816 5814 5812 5810 5807 5805 5803 5800 5797 5794 5791 5788 5784 5781 5777 5774 5771 5768 5765 5763 5761 5759 5758 5756 5754 5753 5752 5751 5751 5750 5750
5825 5824 5825 5825 5823 5821 5821 5820 5819 5817 5815 5814 5812 5810 5808 5805 5802 5799 5797 5794 5791 5788 5784 5781 5777 5774 5770 5767 5763 5760 5756 5753 5750 5748 5747 5745 5744 5742 5741 5740 5740 5740 5740 5740
5820 5819 5819 5819 5817 5816 5816 5816 5813 5810 5809 5807 5805 5803 5801 5797 5794 5791 5788 5785 5781 5777 5774 5770 5767 5763 5759 5755 5751 5748 5744 5740 5737 5735 5733 5731 5730 5729 5728 5727 5727 5727 5728 5728
5815 5814 5815 5812 5811 5810 5809 5807 5805 5803 5802 5800 5797 5795 5792 5789 5786 5782 5779 5775 5771 5767 5763 5759 5755 5751 5747 5743 5739 5735 5731 5727 5724 5720 5718 5716 5714 5713 5713 5712 5713 5713 5714 5715
5809 5810 5807 5805 5804 5802 5801 5799 5797 5795 5793 5791 5789 5786 5783 5780 5776 5772 5769 5764 5760 5755 5751 5747 5742 5738 5734 5730 5725 5721 5716 5712 5709 5705 5703 5700 5699 5698 5697 5697 5697 5698 5699 5701
5801 5800 5799 5797 5796 5794 5793 5791 5789 5787 5784 5782 5779 5776 5773 5769 5766 5762 5757 5753 5748 5744 5739 5734 5730 5725 5720 5715 5710 5705 5701 5696 5693 5690 5687 5685 5683 5682 5682 5682 5682 5682 5683 5685
5792 5791 5790 5789 5787 5785 5784 5781 5779 5777 5775 5772 5769 5766 5762 5758 5754 5750 5746 5741 5736 5731 5726 5721 5716 5711 5706 5701 5696 5690 5686 5681 5677 5674 5672 5670 5668 5667 5666 5666 5666 5666 5668 5669
5783 5782 5781 5780 5778 5775 5773 5771 5769 5767 5764 5761 5758 5755 5751 5747 5742 5738 5733 5728 5723 5718 5713 5708 5702 5697 5691 5686 5680 5675 5671 5666 5662 5658 5655 5653 5652 5651 5650 5650 5650 5650 5651 5653
5772 5772 5770 5769 5767 5765 5762 5760 5758 5755 5753 5750 5746 5742 5738 5734 5729 5725 5720 5715 5709 5704 5698 5693 5687 5682 5676 5671 5665 5660 5655 5651 5646 5643 5640 5637 5635 5633 5633 5634 5634 5634 5635 5636
5761 5760 5759 5757 5755 5753 5751 5748 5746 5743 5740 5737 5733 5730 5725 5721 5716 5711 5706 5700 5695 5689 5684 5678 5672 5667 5661 5656 5651 5646 5641 5636 5632 5628 5624 5621 5619 5617 5616 5616 5616 5617 5619 5620
5750 5749 5747 5745 5743 5741 5739 5736 5734 5731 5727 5724 5720 5716 5711 5707 5702 5697 5691 5685 5680 5674 5669 5663 5657 5652 5646 5641 5636 5631 5626 5622 5617 5613 5609 5606 5603 5601 5600 5600 5600 5601 5602 5604
5738 5736 5735 5733 5731 5728 5726 5723 5720 5717 5714 5710 5706 5702 5697 5692 5687 5682 5676 5670 5665 5660 5654 5648 5642 5637 5631 5626 5621 5617 5612 5607 5602 5597 5594 5591 5588 5586 5585 5584 5584 5585 5586 5588
5726 5724 5722 5720 5718 5715 5713 5710 5707 5703 5700 5696 5692 5687 5683 5678 5673 5667 5662 5656 5650 5644 5638 5632 5627 5622 5616 5611 5606 5601 5597 5592 5588 5583 5579 5576 5573 5571 5570 5569 5569 5570 5571 5572
5713 5712 5710 5707 5705 5702 5699 5696 5693 5689 5685 5681 5677 5673 5668 5663 5658 5652 5647 5641 5635 5629 5623 5617 5612 5607 5601 5596 5591 5586 5581 5577 5572 5568 5565 5561 5558 5556 5555 5554 5554 5554 5555 5557
5700 5699 5696 5694 5691 5689 5686 5682 5678 5675 5670 5666 5662 5657 5652 5647 5642 5637 5631 5626 5620 5615 5609 5603 5597 5591 5586 5581 5576 5571 5566 5561 5557 5553 5549 5546 5543 5541 5539 5538 5538 5539 5540 5542
5687 5685 5683 5680 5677 5675 5671 5668 5664 5660 5655 5651 5647 5642 5637 5632 5626 5621 5616 5610 5604 5598 5593 5588 5582 5577 5571 5566 5560 5555 5550 5545 5541 5538 5534 5531 5528 5526 5524 5523 5523 5523 5524 5526
5673 5671 5668 5666 5663 5660 5657 5653 5649 5645 5640 5636 5631 5626 5622 5616 5611 5605 5600 5595 5590 5583 5578 5572 5567 5561 5556 5550 5545 5540 5535 5530 5526 5523 5519 5516 5514 5511 5510 5508 5508 5508 5509 5511
5658 5656 5653 5651 5648 5645 5641 5637 5633 5629 5625 5620 5615 5610 5606 5601 5595 5590 5584 5579 5574 5568 5562 5557 5551 5546 5540 5535 5530 5525 5520 5516 5512 5509 5505 5502 5500 5497 5495 5494 5493 5494 5495 5496
5643 5640 5638 5635 5633 5629 5625 5621 5617 5613 5609 5604 5599 5594 5589 5585 5579 5574 5570 5564 5557 5552 5547 5542 5536 5530 5525 5520 5515 5511 5507 5503 5498 5495 5491 5488 5486 5483 5481 5480 5479 5479 5480 5482
5627 5624 5622 5619 5616 5613 5609 5605 5601 5597 5592 5588 5583 5578 5573 5569 5564 5558 5553 5548 5542 5536 5531 5527 5521 5515 5510 5506 5502 5498 5493 5489 5485 5481 5478 5475 5472 5469 5467 5465 5464 5465 5466 5467
5609 5607 5605 5602 5599 5596 5593 5589 5585 5581 5576 5572 5567 5562 5557 5552 5548 5543 5537 5532 5527 5521 5516 5512 5506 5501 5496 5492 5488 5484 5480 5476 5472 5468 5464 5461 5458 5456 5454 5452 5451 5451 5452 5453
5591 5589 5587 5584 5581 5578 5575 5572 5568 5564 5560 5556 5552 5547 5542 5536 5531 5527 5522 5517 5512 5506 5501 5497 5492 5487 5483 5479 5475 5471 5467 5463 5459 5456 5452 5449 5446 5444 5441 5440 5439 5439 5439 5440
5573 5571 5569 5567 5564 5561 5558 5555 5551 5547 5543 5539 5536 5531 5526 5521 5516 5512 5507 5502 5497 5492 5488 5483 5478 5474 5470 5466 5463 5459 5455 5451 5447 5444 5441 5438 5435 5432 5431 5429 5429 5429 5429 5430